| time (UTC) | temp F | wind direction | speed MPH | gust MPH | rain 1hr in | rain 24hr in | rain mn in | humidity % | barometer mb |
| 20260507031510 | 61 | 281 | 0.0 | 3.0 | 0.01 | 1.03 | 1.03 | 96 | 1010.7 |
| 20260507030018 | 61 | 262 | 1.0 | 4.0 | 0.02 | 1.03 | 1.03 | 96 | 1010.6 |
| 20260507024514 | 61 | 208 | 0.0 | 1.0 | 0.01 | 1.02 | 1.02 | 96 | 1010.5 |
| 20260507023008 | 61 | 257 | 0.0 | 2.0 | 0.03 | 1.02 | 1.02 | 96 | 1011.1 |
| 20260507021508 | 61 | 238 | 0.0 | 2.0 | 0.03 | 1.02 | 1.02 | 96 | 1011.0 |
| 20260507020007 | 61 | 237 | 0.0 | 2.0 | 0.02 | 1.01 | 1.01 | 96 | 1010.8 |
| 20260507014511 | 61 | 237 | 1.0 | 4.0 | 0.04 | 1.01 | 1.01 | 95 | 1010.5 |
| 20260507013010 | 62 | 258 | 2.0 | 7.0 | 0.05 | 0.99 | 0.99 | 95 | 1010.7 |
| 20260507011504 | 63 | 248 | 2.0 | 6.0 | 0.08 | 0.99 | 0.99 | 96 | 1010.3 |
| 20260507010007 | 63 | 268 | 1.0 | 3.0 | 0.12 | 0.99 | 0.99 | 96 | 1010.1 |
| 20260507004501 | 63 | 152 | 3.0 | 9.0 | 0.13 | 0.97 | 0.97 | 96 | 1009.1 |
| 20260507003001 | 64 | 224 | 0.0 | 5.0 | 0.11 | 0.94 | 0.94 | 96 | 1011.0 |
| 20260507001501 | 64 | 93 | 1.0 | 6.0 | 0.08 | 0.91 | 0.91 | 96 | 1010.6 |
| 20260507000002 | 64 | 149 | 0.0 | 2.0 | 0.04 | 0.87 | 0.87 | 96 | 1009.9 |
| 20260506234601 | 65 | 241 | 0.0 | 3.0 | 0.01 | 0.84 | 0.84 | 96 | 1009.7 |
| 20260506233100 | 65 | 237 | 1.0 | 3.0 | 0.02 | 0.83 | 0.83 | 96 | 1009.7 |
| 20260506231611 | 65 | 260 | 0.0 | 1.0 | 0.05 | 0.83 | 0.83 | 96 | 1009.6 |
| 20260506230121 | 65 | 251 | 0.0 | 2.0 | 0.08 | 0.83 | 0.83 | 96 | 1009.6 |
| 20260506224559 | 66 | 283 | 1.0 | 2.0 | 0.11 | 0.83 | 0.83 | 96 | 1009.2 |
| 20260506223059 | 66 | 227 | 1.0 | 10.0 | 0.11 | 0.81 | 0.81 | 96 | 1009.6 |
| 20260506221621 | 66 | 273 | 0.0 | 2.0 | 0.11 | 0.78 | 0.78 | 96 | 1009.3 |
| 20260506220127 | 66 | 234 | 0.0 | 2.0 | 0.09 | 0.75 | 0.75 | 96 | 1009.1 |
| 20260506214556 | 66 | 240 | 1.0 | 4.0 | 0.07 | 0.72 | 0.72 | 95 | 1009.4 |
| 20260506213110 | 66 | 214 | 0.0 | 3.0 | 0.06 | 0.70 | 0.70 | 95 | 1009.1 |
| 20260506211559 | 66 | 252 | 2.0 | 8.0 | 0.05 | 0.67 | 0.67 | 95 | 1009.5 |
| 20260506210104 | 66 | 233 | 1.0 | 3.0 | 0.06 | 0.66 | 0.66 | 95 | 1008.6 |
| 20260506204605 | 66 | 229 | 1.0 | 4.0 | 0.09 | 0.65 | 0.65 | 95 | 1008.1 |
| 20260506203054 | 66 | 48 | 0.0 | 2.0 | 0.08 | 0.64 | 0.64 | 95 | 1008.9 |
| 20260506201554 | 66 | 237 | 0.0 | 2.0 | 0.08 | 0.62 | 0.62 | 95 | 1009.2 |
| 20260506200053 | 66 | 243 | 0.0 | 3.0 | 0.07 | 0.59 | 0.59 | 94 | 1009.7 |
| 20260506194553 | 67 | 221 | 3.0 | 8.0 | 0.05 | 0.56 | 0.56 | 93 | 1009.8 |
| 20260506193052 | 67 | 295 | 1.0 | 3.0 | 0.05 | 0.56 | 0.56 | 93 | 1009.9 |
| 20260506191553 | 66 | 259 | 1.0 | 3.0 | 0.03 | 0.54 | 0.54 | 93 | 1009.5 |
| 20260506190052 | 67 | 136 | 0.0 | 5.0 | 0.01 | 0.52 | 0.52 | 91 | 1010.0 |
| 20260506184604 | 67 | 101 | 1.0 | 9.0 | 0.00 | 0.51 | 0.51 | 89 | 1010.5 |
| 20260506183051 | 68 | 210 | 1.0 | 5.0 | 0.00 | 0.51 | 0.51 | 87 | 1010.4 |
| 20260506181550 | 69 | 237 | 2.0 | 6.0 | 0.00 | 0.51 | 0.51 | 86 | 1010.6 |
| 20260506180052 | 69 | 246 | 5.0 | 13.0 | 0.00 | 0.51 | 0.51 | 86 | 1010.4 |
| 20260506174549 | 69 | 250 | 3.0 | 7.0 | 0.00 | 0.51 | 0.51 | 89 | 1010.1 |
| 20260506173050 | 69 | 261 | 3.0 | 10.0 | 0.00 | 0.51 | 0.51 | 88 | 1010.0 |
| 20260506171558 | 69 | 244 | 1.0 | 6.0 | 0.00 | 0.51 | 0.51 | 89 | 1009.8 |
| 20260506170053 | 69 | 256 | 1.0 | 8.0 | 0.00 | 0.51 | 0.51 | 90 | 1009.8 |
| 20260506164549 | 67 | 73 | 1.0 | 3.0 | 0.00 | 0.51 | 0.51 | 91 | 1009.7 |
| 20260506163047 | 67 | 223 | 1.0 | 5.0 | 0.00 | 0.51 | 0.51 | 93 | 1009.8 |
| 20260506161546 | 66 | 223 | 2.0 | 6.0 | 0.00 | 0.51 | 0.51 | 94 | 1009.7 |
| 20260506160059 | 64 | 74 | 1.0 | 9.0 | 0.01 | 0.51 | 0.51 | 95 | 1009.6 |
| 20260506154544 | 64 | 100 | 1.0 | 5.0 | 0.04 | 0.51 | 0.51 | 95 | 1009.9 |
| 20260506153044 | 63 | 303 | 1.0 | 6.0 | 0.06 | 0.51 | 0.51 | 95 | 1010.3 |
| 20260506151544 | 63 | 105 | 1.0 | 3.0 | 0.09 | 0.51 | 0.51 | 95 | 1010.7 |
| 20260506150047 | 63 | 152 | 0.0 | 2.0 | 0.13 | 0.50 | 0.50 | 95 | 1010.8 |
| 20260506144557 | 63 | 219 | 1.0 | 4.0 | 0.14 | 0.47 | 0.47 | 95 | 1011.0 |
| 20260506143041 | 63 | 235 | 3.0 | 11.0 | 0.15 | 0.45 | 0.45 | 95 | 1011.1 |
| 20260506141540 | 62 | 227 | 0.0 | 4.0 | 0.16 | 0.42 | 0.42 | 95 | 1010.0 |
| 20260506140039 | 62 | 199 | 1.0 | 5.0 | 0.15 | 0.37 | 0.37 | 95 | 1010.3 |
| 20260506134537 | 62 | 216 | 1.0 | 3.0 | 0.22 | 0.33 | 0.33 | 94 | 1010.2 |
| 20260506133039 | 62 | 223 | 1.0 | 5.0 | 0.23 | 0.30 | 0.30 | 94 | 1010.3 |
| 20260506131543 | 62 | 239 | 0.0 | 3.0 | 0.23 | 0.26 | 0.26 | 94 | 1010.1 |
| 20260506130035 | 62 | 152 | 0.0 | 4.0 | 0.21 | 0.22 | 0.22 | 93 | 1010.1 |
| 20260506124535 | 63 | 239 | 5.0 | 10.0 | 0.11 | 0.11 | 0.11 | 92 | 1010.8 |
| 20260506123029 | 63 | 241 | 1.0 | 2.0 | 0.07 | 0.07 | 0.07 | 91 | 1009.9 |
| 20260506121527 | 64 | 236 | 1.0 | 4.0 | 0.03 | 0.03 | 0.03 | 88 | 1009.8 |
| 20260506120026 | 64 | 265 | 0.0 | 3.0 | 0.01 | 0.01 | 0.01 | 86 | 1009.5 |
| 20260506114533 | 65 | 226 | 1.0 | 9.0 | 0.00 | 0.00 | 0.00 | 82 | 1009.2 |
| 20260506113016 | 67 | 199 | 1.0 | 4.0 | 0.00 | 0.00 | 0.00 | 78 | 1009.0 |
| 20260506111514 | 67 | 261 | 1.0 | 4.0 | 0.00 | 0.00 | 0.00 | 76 | 1008.7 |
| 20260506110017 | 68 | 212 | 1.0 | 11.0 | 0.00 | 0.00 | 0.00 | 74 | 1008.4 |
| 20260506104511 | 69 | 223 | 1.0 | 7.0 | 0.00 | 0.00 | 0.00 | 71 | 1008.3 |
| 20260506103010 | 69 | 210 | 2.0 | 13.0 | 0.00 | 0.00 | 0.00 | 70 | 1008.3 |
| 20260506101513 | 69 | 225 | 3.0 | 10.0 | 0.00 | 0.00 | 0.00 | 69 | 1007.8 |
| 20260506100021 | 70 | 252 | 1.0 | 8.0 | 0.00 | 0.00 | 0.00 | 69 | 1007.4 |
| 20260506094509 | 70 | 245 | 2.0 | 8.0 | 0.00 | 0.00 | 0.00 | 68 | 1007.5 |
| 20260506093008 | 70 | 241 | 2.0 | 9.0 | 0.00 | 0.00 | 0.00 | 67 | 1007.6 |
| 20260506091506 | 70 | 145 | 3.0 | 5.0 | 0.00 | 0.00 | 0.00 | 67 | 1007.6 |
| 20260506090004 | 69 | 217 | 1.0 | 4.0 | 0.00 | 0.00 | 0.00 | 65 | 1007.5 |
| 20260506084504 | 69 | 148 | 0.0 | 4.0 | 0.00 | 0.00 | 0.00 | 62 | 1007.3 |
| 20260506083002 | 69 | 246 | 0.0 | 3.0 | 0.00 | 0.00 | 0.00 | 61 | 1007.3 |
| 20260506081501 | 69 | 199 | 1.0 | 4.0 | 0.00 | 0.00 | 0.00 | 60 | 1007.2 |
| 20260506080104 | 69 | 223 | 0.0 | 3.0 | 0.00 | 0.00 | 0.00 | 60 | 1007.2 |
| 20260506073059 | 69 | 210 | 1.0 | 8.0 | 0.00 | 0.00 | 0.00 | 58 | 1007.3 |
| 20260506071600 | 69 | 246 | 1.0 | 4.0 | 0.00 | 0.00 | 0.00 | 58 | 1007.6 |
| 20260506061552 | 70 | 204 | 0.0 | 4.0 | 0.00 | 0.00 | 0.00 | 55 | 1008.1 |
| 20260506044547 | 68 | 237 | 2.0 | 5.0 | 0.00 | 0.00 | 0.00 | 53 | 1008.9 |
| 20260506043044 | 68 | 264 | 1.0 | 3.0 | 0.00 | 0.00 | 0.00 | 53 | 1009.0 |
| 20260506041542 | 69 | 256 | 0.0 | 3.0 | 0.00 | 0.00 | 0.00 | 53 | 1008.7 |
| 20260506040039 | 69 | 250 | 1.0 | 3.0 | 0.00 | 0.00 | 0.00 | 51 | 1008.9 |
| 20260506034539 | 70 | 237 | 1.0 | 5.0 | 0.00 | 0.00 | 0.00 | 51 | 1008.9 |
| 20260506033038 | 70 | 231 | 1.0 | 8.0 | 0.00 | 0.00 | 0.00 | 49 | 1009.0 |